H1 CPF 2 NER 2025 8 10 9 222 01 glonass134 H2 1407501 9134 40315 2025 8 10 0 0 0 2025 8 13 23 45 0 900 1 1 0 0 0 1 H9 10 0 60897 0.00000 0 2418914.214 20541888.689 -14842029.173 10 0 60897 900.00000 0 1497146.478 18790529.649 -17114260.600 10 0 60897 1800.00000 0 312584.426 16890939.025 -19052209.715 10 0 60897 2700.00000 0 -1132011.471 14906601.296 -20618185.085 10 0 60897 3600.00000 0 -2821587.928 12901117.540 -21781825.929 10 0 60897 4500.00000 0 -4729197.434 10935630.409 -22520686.019 10 0 60897 5400.00000 0 -6816907.898 9066376.868 -22820656.188 10 0 60897 6300.00000 0 -9037184.124 7342471.471 -22676218.597 10 0 60897 7200.00000 0 -11334681.977 5804012.366 -22090529.486 10 0 60897 8100.00000 0 -13648378.924 4480587.643 -21075330.829 10 0 60897 9000.00000 0 -15913950.998 3390242.075 -19650694.653 10 0 60897 9900.00000 0 -18066296.350 2538944.422 -17844607.005 10 0 60897 10800.00000 0 -20042100.147 1920574.123 -15692401.445 10 0 60897 11700.00000 0 -21782334.463 1517424.393 -13236054.560 10 0 60897 12600.00000 0 -23234590.119 1301197.272 -10523358.355 10 0 60897 13500.00000 0 -24355144.949 1234445.964 -7606986.292 10 0 60897 14400.00000 0 -25110684.332 1272401.633 -4543471.441 10 0 60897 15300.00000 0 -25479604.486 1365106.344 -1392116.449 10 0 60897 16200.00000 0 -25452846.405 1459761.734 1786144.019 10 0 60897 17100.00000 0 -25034227.691 1503194.587 4929907.243 10 0 60897 18000.00000 0 -24240260.066 1444336.188 7978471.427 10 0 60897 18900.00000 0 -23099461.221 1236612.126 10872988.583 10 0 60897 19800.00000 0 -21651190.114 840143.227 13557580.704 10 0 60897 20700.00000 0 -19944053.927 223666.155 15980399.390 10 0 60897 21600.00000 0 -18033952.096 -633906.252 18094610.264 10 0 60897 22500.00000 0 -15981837.254 -1742350.243 19859284.812 10 0 60897 23400.00000 0 -13851284.317 -3099470.156 21240183.785 10 0 60897 24300.00000 0 -11705966.643 -4690940.258 22210418.050 10 0 60897 25200.00000 0 -9607142.033 -6490658.238 22750974.645 10 0 60897 26100.00000 0 -7611251.221 -8461598.485 22851097.752 10 0 60897 27000.00000 0 -5767727.290 -10557132.896 22508516.554 10 0 60897 27900.00000 0 -4117106.266 -12722767.716 21729514.209 10 0 60897 28800.00000 0 -2689517.445 -14898227.403 20528834.780 10 0 60897 29700.00000 0 -1503616.868 -17019801.643 18929427.601 10 0 60897 30600.00000 0 -566009.478 -19022859.916 16962031.542 10 0 60897 31500.00000 0 128814.430 -20844429.972 14664604.672 10 0 60897 32400.00000 0 598024.307 -22425732.811 12081608.093 10 0 60897 33300.00000 0 869493.737 -23714567.418 9263155.913 10 0 60897 34200.00000 0 980383.330 -24667443.741 6264046.660 10 0 60897 35100.00000 0 975321.587 -25251372.165 3142694.421 10 0 60897 36000.00000 0 904260.994 -25445231.705 -40019.173 10 0 60897 36900.00000 0 820101.319 -25240656.757 -3221948.660 10 0 60897 37800.00000 0 776182.813 -24642402.774 -6340918.912 10 0 60897 38700.00000 0 823758.215 -23668173.792 -9335963.447 10 0 60897 39600.00000 0 1009553.763 -22347918.212 -12148540.103 10 0 60897 40500.00000 0 1373525.745 -20722622.524 -14723697.812 10 0 60897 41400.00000 0 1946910.568 -18842654.631 -17011169.340 10 0 60897 42300.00000 0 2750653.364 -16765728.063 -18966366.728 10 0 60897 43200.00000 0 3794283.399 -14554574.626 -20551258.694 10 0 60897 44100.00000 0 5075284.832 -12274425.340 -21735112.281 10 0 60897 45000.00000 0 6578989.607 -9990407.217 -22495084.339 10 0 60897 45900.00000 0 8278996.586 -7764966.347 -22816652.080 10 0 60897 46800.00000 0 10138098.324 -5655425.768 -22693875.625 10 0 60897 47700.00000 0 12109675.302 -3711780.005 -22129489.150 10 0 60897 48600.00000 0 14139497.780 -1974817.263 -21134820.819 10 0 60897 49500.00000 0 16167858.584 -474645.602 -19729545.142 10 0 60897 50400.00000 0 18131946.662 770318.146 -17941274.548 10 0 60897 51300.00000 0 19968361.744 1753857.843 -15804999.940 10 0 60897 52200.00000 0 21615665.168 2481948.254 -13362392.595 10 0 60897 53100.00000 0 23016861.002 2972230.016 -10660982.158 10 0 60897 54000.00000 0 24121705.083 3252994.728 -7753227.444 10 0 60897 54900.00000 0 24888747.225 3361725.531 -4695498.398 10 0 60897 55800.00000 0 25287023.234 3343256.565 -1546988.931 10 0 60897 56700.00000 0 25297328.120 3247629.964 1631418.808 10 0 60897 57600.00000 0 24913019.232 3127740.997 4778317.584 10 0 60897 58500.00000 0 24140317.391 3036870.215 7832944.283 10 0 60897 59400.00000 0 22998094.546 3026205.647 10736334.043 10 0 60897 60300.00000 0 21517157.285 3142458.131 13432438.671 10 0 60897 61200.00000 0 19739055.838 3425668.853 15869189.458 10 0 60897 62100.00000 0 17714467.286 3907300.150 17999485.673 10 0 60897 63000.00000 0 15501218.698 4608689.141 19782091.287 10 0 60897 63900.00000 0 13162030.386 5539929.050 21182424.011 10 0 60897 64800.00000 0 10762070.738 6699225.877 22173222.411 10 0 60897 65700.00000 0 8366421.733 8072758.970 22735078.796 10 0 60897 66600.00000 0 6037558.168 9635053.664 22856827.468 10 0 60897 67500.00000 0 3832943.350 11349853.418 22535780.211 10 0 60897 68400.00000 0 1802839.794 13171458.348 21777803.135 10 0 60897 69300.00000 0 -11574.707 15046477.714 20597231.575 10 0 60897 70200.00000 0 -1579707.233 16915926.320 19016622.412 10 0 60897 71100.00000 0 -2882602.939 18717579.923 17066346.097 10 0 60897 72000.00000 0 -3913506.166 20388492.919 14784023.750 10 0 60897 72900.00000 0 -4677904.592 21867573.805 12213817.895 10 0 60897 73800.00000 0 -5193053.162 23098110.256 9405588.671 10 0 60897 74700.00000 0 -5486996.635 24030136.659 6413930.629 10 0 60897 75600.00000 0 -5597131.266 24622542.580 3297108.272 10 0 60897 76500.00000 0 -5568366.397 24844830.896 115911.327 10 0 60897 77400.00000 0 -5450964.472 24678448.733 -3067546.885 10 0 60897 78300.00000 0 -5298152.586 24117632.425 -6191062.797 10 0 60897 79200.00000 0 -5163609.057 23169728.630 -9193581.379 10 0 60897 80100.00000 0 -5098934.398 21854976.484 -12016413.586 10 0 60897 81000.00000 0 -5151216.932 20205759.305 -14604406.150 10 0 60897 81900.00000 0 -5360799.203 18265357.474 -16907038.517 10 0 60897 82800.00000 0 -5759342.400 16086255.981 -18879423.553 10 0 60897 83700.00000 0 -6368272.732 13728079.286 -20483191.152 10 0 60897 84600.00000 0 -7197676.723 11255242.034 -21687236.871 10 0 60897 85500.00000 0 -8245692.573 8734416.004 -22468321.005 10 0 60898 0.00000 0 -9498422.834 6231921.088 -22811507.150 10 0 60898 900.00000 0 -10930371.919 3811149.030 -22710433.127 10 0 60898 1800.00000 0 -12505386.977 1530131.063 -22167410.283 10 0 60898 2700.00000 0 -14178063.278 -560654.196 -21193351.876 10 0 60898 3600.00000 0 -15895552.008 -2420139.444 -19807533.404 10 0 60898 4500.00000 0 -17599693.985 -4018120.202 -18037191.818 10 0 60898 5400.00000 0 -19229388.946 -5336241.506 -15916973.187 10 0 60898 6300.00000 0 -20723100.812 -6368482.098 -13488241.062 10 0 60898 7200.00000 0 -22021394.285 -7121119.618 -10798260.156 10 0 60898 8100.00000 0 -23069397.403 -7612181.823 -7899271.975 10 0 60898 9000.00000 0 -23819088.273 -7870410.021 -4847480.670 10 0 60898 9900.00000 0 -24231311.941 -7933780.806 -1701968.765 10 0 60898 10800.00000 0 -24277444.806 -7847649.960 1476436.710 10 0 60898 11700.00000 0 -23940638.774 -7662597.556 4626326.542 10 0 60898 12600.00000 0 -23216594.665 -7432065.063 7686878.768 10 0 60898 13500.00000 0 -22113833.707 -7209883.344 10599014.026 10 0 60898 14400.00000 0 -20653456.333 -7047794.528 13306516.183 10 0 60898 15300.00000 0 -18868398.223 -6993070.670 15757098.292 10 0 60898 16200.00000 0 -16802213.766 -7086327.977 17903395.095 10 0 60898 17100.00000 0 -14507436.082 -7359627.370 19703864.595 10 0 60898 18000.00000 0 -12043579.721 -7834940.503 21123582.645 10 0 60898 18900.00000 0 -9474866.553 -8523045.717 22134916.328 10 0 60898 19800.00000 0 -6867766.585 -9422901.070 22718063.639 10 0 60898 20700.00000 0 -4288453.143 -10521522.384 22861449.038 10 0 60898 21600.00000 0 -1800275.711 -11794373.869 22561966.584 10 0 60898 22500.00000 0 538646.591 -13206257.914 21825064.688 10 0 60898 23400.00000 0 2677612.053 -14712670.073 20664669.016 10 0 60898 24300.00000 0 4575213.536 -16261565.751 19102942.774 10 0 60898 25200.00000 0 6200827.335 -17795467.500 17169886.523 10 0 60898 26100.00000 0 7535650.785 -19253826.827 14902782.688 10 0 60898 27000.00000 0 8573243.968 -20575542.787 12345493.222 10 0 60898 27900.00000 0 9319551.411 -21701531.943 9547622.037 10 0 60898 28800.00000 0 9792401.485 -22577240.896 6563557.221 10 0 60898 29700.00000 0 10020503.625 -23154993.970 3451411.011 10 0 60898 30600.00000 0 10041985.265 -23396074.758 271878.411 10 0 60898 31500.00000 0 9902530.645 -23272450.871 -2912962.292 10 0 60898 32400.00000 0 9653201.420 -22768066.205 -6040881.998 10 0 60898 33300.00000 0 9348033.242 -21879643.464 -9050739.999 10 0 60898 34200.00000 0 9041512.693 -20616960.934 -11883703.141 10 0 60898 35100.00000 0 8786044.376 -19002590.415 -14484418.579 10 0 60898 36000.00000 0 8629518.406 -17071106.811 -16802114.851 10 0 60898 36900.00000 0 8613084.083 -14867802.964 -18791607.783 10 0 60898 37800.00000 0 8769226.147 -12446964.772 -20414190.231 10 0 60898 38700.00000 0 9120226.507 -9869780.484 -21638387.627 10 0 60898 39600.00000 0 9677077.104 -7201973.515 -22440564.605 10 0 60898 40500.00000 0 10438889.684 -4511259.453 -22805371.573 10 0 60898 41400.00000 0 11392826.527 -1864734.697 -22726023.826 10 0 60898 42300.00000 0 12514553.628 673693.686 -22204409.430 10 0 60898 43200.00000 0 13769195.565 3045729.930 -21251025.744 10 0 60898 44100.00000 0 15112750.054 5200863.595 -19884747.869 10 0 60898 45000.00000 0 16493901.101 7098206.933 -18132435.547 10 0 60898 45900.00000 0 17856153.262 8707921.811 -16028387.959 10 0 60898 46800.00000 0 19140196.590 10012179.917 -13613658.567 10 0 60898 47700.00000 0 20286402.765 11005619.779 -10935244.513 10 0 60898 48600.00000 0 21237348.020 11695285.159 -8045167.109 10 0 60898 49500.00000 0 21940257.931 12100050.797 -4999461.635 10 0 60898 50400.00000 0 22349272.859 12249562.537 -1857096.025 10 0 60898 51300.00000 0 22427440.645 12182738.535 1321161.033 10 0 60898 52200.00000 0 22148354.764 11945895.973 4473901.506 10 0 60898 53100.00000 0 21497370.786 11590582.608 7540247.562 10 0 60898 54000.00000 0 20472351.482 11171204.171 10461008.078 10 0 60898 54900.00000 0 19083910.047 10742546.564 13179801.406 10 0 60898 55800.00000 0 17355141.291 10357295.750 15644124.449 10 0 60898 56700.00000 0 15320851.331 10063658.111 17806349.166 10 0 60898 57600.00000 0 13026316.403 9903179.812 19624628.977 10 0 60898 58500.00000 0 10525620.407 9908855.617 21063698.939 10 0 60898 59400.00000 0 7879637.704 10103605.947 22095555.357 10 0 60898 60300.00000 0 5153742.042 10499186.206 22700002.279 10 0 60898 61200.00000 0 2415333.793 11095575.000 22865054.313 10 0 60898 62100.00000 0 -268714.677 11880868.644 22587187.397 10 0 60898 63000.00000 0 -2834591.840 12831688.722 21871431.419 10 0 60898 63900.00000 0 -5223954.571 13914088.494 20731301.116 10 0 60898 64800.00000 0 -7386111.415 15084923.186 19188564.335 10 0 60898 65700.00000 0 -9279890.893 16293629.585 17272849.652 10 0 60898 66600.00000 0 -10875116.461 17484342.703 15021098.372 10 0 60898 67500.00000 0 -12153625.432 18598262.306 12476869.164 10 0 60898 68400.00000 0 -13109787.796 19576170.534 9689506.833 10 0 60898 69300.00000 0 -13750501.655 20360994.387 6713190.000 10 0 60898 70200.00000 0 -14094664.167 20900303.793 3605875.605 10 0 60898 71100.00000 0 -14172139.491 21148637.734 428160.906 10 0 60898 72000.00000 0 -14022267.125 21069557.478 -2757913.804 10 0 60898 72900.00000 0 -13691974.366 20637337.151 -5890096.745 10 0 60898 73800.00000 0 -13233574.189 19838217.195 -8907164.224 10 0 60898 74700.00000 0 -12702343.949 18671165.159 -11750141.462 10 0 60898 75600.00000 0 -12153990.082 17148109.686 -14363478.253 10 0 60898 76500.00000 0 -11642109.021 15293636.622 -16696154.127 10 0 60898 77400.00000 0 -11215754.580 13144159.685 -18702689.420 10 0 60898 78300.00000 0 -10917217.067 10746601.013 -20344041.129 10 0 60898 79200.00000 0 -10780109.758 8156638.033 -21588365.372 10 0 60898 80100.00000 0 -10827844.470 5436591.592 -22411631.550 10 0 60898 81000.00000 0 -11072560.644 2653045.260 -22798076.930 10 0 60898 81900.00000 0 -11514552.334 -125703.415 -22740494.024 10 0 60898 82800.00000 0 -12142215.805 -2832252.434 -22240346.846 10 0 60898 83700.00000 0 -12932518.066 -5402656.691 -21307715.749 10 0 60898 84600.00000 0 -13851964.441 -7778835.074 -19961073.951 10 0 60898 85500.00000 0 -14858022.419 -9910724.447 -18226902.128 10 0 60899 0.00000 0 -15900939.915 -11758092.942 -16139150.619 10 0 60899 900.00000 0 -16925880.698 -13291940.778 -13738560.021 10 0 60899 1800.00000 0 -17875284.964 -14495431.145 -11071857.513 10 0 60899 2700.00000 0 -18691357.522 -15364319.077 -8190841.564 10 0 60899 3600.00000 0 -19318578.035 -15906861.363 -5151375.910 10 0 60899 4500.00000 0 -19706129.339 -16143215.416 -2012311.252 10 0 60899 5400.00000 0 -19810143.062 -16104354.722 1165644.664 10 0 60899 6300.00000 0 -19595669.786 -15830548.198 4321087.520 10 0 60899 7200.00000 0 -19038292.558 -15369468.369 7393086.078 10 0 60899 8100.00000 0 -18125317.366 -14774008.000 10322339.823 10 0 60899 9000.00000 0 -16856491.519 -14099896.432 13052303.855 10 0 60899 9900.00000 0 -15244220.093 -13403214.576 15530261.022 10 0 60899 10800.00000 0 -13313270.864 -12737911.471 17708322.382 10 0 60899 11700.00000 0 -11099978.772 -12153424.997 19544338.389 10 0 60899 12600.00000 0 -8650981.086 -11692505.083 21002704.605 10 0 60899 13500.00000 0 -6021533.285 -11389329.563 22055047.517 10 0 60899 14400.00000 0 -3273472.646 -11267991.145 22680777.824 10 0 60899 15300.00000 0 -472910.920 -11341419.062 22867500.533 10 0 60899 16200.00000 0 2312251.249 -11610781.559 22611273.370 10 0 60899 17100.00000 0 5014887.826 -12065395.946 21916707.303 10 0 60899 18000.00000 0 7571184.554 -12683152.284 20796905.447 10 0 60899 18900.00000 0 9923045.885 -13431435.551 19273239.324 10 0 60899 19800.00000 0 12020272.238 -14268510.336 17374964.279 10 0 60899 20700.00000 0 13822416.666 -15145312.352 15138678.942 10 0 60899 21600.00000 0 15300242.618 -16007573.362 12607636.839 10 0 60899 22500.00000 0 16436720.433 -16798191.192 9830921.451 10 0 60899 23400.00000 0 17227519.177 -17459745.110 6862499.401 10 0 60899 24300.00000 0 17680971.559 -17937049.584 3760169.480 10 0 60899 25200.00000 0 17817512.208 -18179636.811 584428.116 10 0 60899 26100.00000 0 17668612.284 -18144060.540 -2602725.627 10 0 60899 27000.00000 0 17275255.567 -17795920.784 -5739020.572 10 0 60899 27900.00000 0 16686021.301 -17111520.630 -8763153.274 10 0 60899 28800.00000 0 15954856.638 -16079082.111 -11616010.405 10 0 60899 29700.00000 0 15138635.199 -14699467.284 -14241847.263 10 0 60899 30600.00000 0 14294607.751 -12986372.233 -16589396.947 10 0 60899 31500.00000 0 13477855.544 -10965984.865 -18612886.546 10 0 60899 32400.00000 0 12738856.455 -8676120.710 -20272939.047 10 0 60899 33300.00000 0 12121268.669 -6164873.595 -21537342.671 10 0 60899 34200.00000 0 11660026.642 -3488838.888 -22381672.538 10 0 60899 35100.00000 0 11379829.954 -710985.047 -22789753.224 10 0 60899 36000.00000 0 11294088.137 2101736.214 -22753954.410 10 0 60899 36900.00000 0 11404364.532 4880940.289 -22275315.541 10 0 60899 37800.00000 0 11700340.591 7559413.708 -21363498.988 10 0 60899 38700.00000 0 12160299.709 10073663.500 -20036574.697 10 0 60899 39600.00000 0 12752107.716 12366306.588 -18320642.534 10 0 60899 40500.00000 0 13434646.396 14388201.437 -16249301.489 10 0 60899 41400.00000 0 14159637.724 16100235.564 -13862977.647 10 0 60899 42300.00000 0 14873780.577 17474697.287 -11208125.196 10 0 60899 43200.00000 0 15521109.204 18496177.798 -8336316.837 10 0 60899 44100.00000 0 16045474.049 19161969.224 -5303241.641 10 0 60899 45000.00000 0 16393041.016 19481945.214 -2167629.834 10 0 60899 45900.00000 0 16514705.002 19477931.832 1009875.055 10 0 60899 46800.00000 0 16368317.522 19182597.270 4167875.631 10 0 60899 47700.00000 0 15920636.211 18637908.333 7245390.308 10 0 60899 48600.00000 0 15148915.629 17893219.044 10183011.994 10 0 60899 49500.00000 0 14042073.641 17003071.329 12924035.048 10 0 60899 50400.00000 0 12601384.874 16024799.191 15415530.450 10 0 60899 51300.00000 0 10840672.016 15016035.416 17609350.204 10 0 60899 52200.00000 0 8785985.923 14032223.646 19463043.298 10 0 60899 53100.00000 0 6474786.089 13124238.325 20940666.965 10 0 60899 54000.00000 0 3954653.151 12336210.642 22013478.701 10 0 60899 54900.00000 0 1281583.951 11703650.410 22660496.336 10 0 60899 55800.00000 0 -1482063.273 11251941.996 22868915.383 10 0 60899 56700.00000 0 -4269891.628 10995277.491 22634375.068 10 0 60899 57600.00000 0 -7013962.946 10936072.764 21961066.719 10 0 60899 58500.00000 0 -9647368.754 11064892.484 20861680.662 10 0 60899 59400.00000 0 -12106769.977 11360889.400 19357190.459 10 0 60899 60300.00000 0 -14334800.897 11792741.799 17476476.150 10 0 60899 61200.00000 0 -16282237.430 12320052.140 15255791.235 10 0 60899 62100.00000 0 -17909838.717 12895149.977 12738081.310 10 0 60899 63000.00000 0 -19189783.777 13465224.650 9972165.534 10 0 60899 63900.00000 0 -20106641.316 13974698.306 7011795.394 10 0 60899 64800.00000 0 -20657830.215 14367738.620 3914608.368 10 0 60899 65700.00000 0 -20853549.633 14590803.632 740996.913 10 0 60899 66600.00000 0 -20716180.500 14595108.820 -2447084.185 10 0 60899 67500.00000 0 -20279183.162 14338909.137 -5587347.281 10 0 60899 68400.00000 0 -19585538.019 13789496.246 -8618411.934 10 0 60899 69300.00000 0 -18685796.249 12924823.250 -11481028.837 10 0 60899 70200.00000 0 -17635824.873 11734685.323 -14119261.094 10 0 60899 71100.00000 0 -16494343.860 10221404.080 -16481597.375 10 0 60899 72000.00000 0 -15320361.991 8399985.247 -18521973.158 10 0 60899 72900.00000 0 -14170622.260 6297742.262 -20200678.665 10 0 60899 73800.00000 0 -13097166.731 3953401.673 -21485135.032 10 0 60899 74700.00000 0 -12145124.972 1415728.580 -22350523.479 10 0 60899 75600.00000 0 -11350819.823 -1258269.151 -22780255.844 10 0 60899 76500.00000 0 -10740269.904 -4005481.533 -22766278.525 10 0 60899 77400.00000 0 -10328150.651 -6759091.320 -22309205.533 10 0 60899 78300.00000 0 -10117255.566 -9451122.354 -21418280.023 10 0 60899 79200.00000 0 -10098477.787 -12015034.910 -20111167.091 10 0 60899 80100.00000 0 -10251309.932 -14388260.295 -18413583.891 10 0 60899 81000.00000 0 -10544838.318 -16514570.274 -16358776.127 10 0 60899 81900.00000 0 -10939187.160 -18346184.492 -13986852.663 10 0 60899 82800.00000 0 -11387349.827 -19845530.468 -11343992.423 10 0 60899 83700.00000 0 -11837328.584 -20986585.677 -8481539.851 10 0 60899 84600.00000 0 -12234491.924 -21755748.789 -5455006.878 10 0 60899 85500.00000 0 -12524050.132 -22152206.730 -2323000.836 10 0 60900 0.00000 0 -12653545.343 -22187785.055 853901.030 10 0 60900 900.00000 0 -12575252.327 -21886290.156 4014311.108 10 0 60900 1800.00000 0 -12248390.069 -21282372.571 7097199.395 10 0 60900 2700.00000 0 -11641052.737 -20419959.952 10043054.381 10 0 60900 3600.00000 0 -10731779.777 -19350325.361 12795011.779 10 0 60900 4500.00000 0 -9510700.060 -18129871.249 15299932.688 10 0 60900 5400.00000 0 -7980202.161 -16817720.655 17509411.910 10 0 60900 6300.00000 0 -6155102.065 -15473214.766 19380698.641 10 0 60900 7200.00000 0 -4062299.798 -14153419.658 20877513.230 10 0 60900 8100.00000 0 -1739937.091 -12910744.612 21970745.361 10 0 60900 9000.00000 0 763911.756 -11790770.005 22639020.896 10 0 60900 9900.00000 0 3392964.622 -10830374.486 22869126.454 10 0 60900 10800.00000 0 6084803.773 -10056239.269 22656283.069 10 0 60900 11700.00000 0 8773212.841 -9483792.362 22004262.447 10 0 60900 12600.00000 0 11390684.533 -9116637.878 20925341.857 10 0 60900 13500.00000 0 13870997.198 -8946495.870 19440096.355 10 0 60900 14400.00000 0 16151754.719 -8953657.179 17577029.820 10 0 60900 15300.00000 0 18176784.526 -9107936.277 15372049.440 10 0 60900 16200.00000 0 19898293.476 -9370083.988 12867791.344 10 0 60900 17100.00000 0 21278690.409 -9693602.056 10112808.440 10 0 60900 18000.00000 0 22291997.370 -10026883.879 7160634.750 10 0 60900 18900.00000 0 22924788.329 -10315590.876 4068743.717 10 0 60900 19800.00000 0 23176613.903 -10505163.065 897420.784 10 0 60900 20700.00000 0 23059892.546 -10543355.688 -2291426.841 10 0 60900 21600.00000 0 22599271.674 -10382691.884 -5435498.463 10 0 60900 22500.00000 0 21830485.377 -9982724.438 -8473340.077 10 0 60900 23400.00000 0 20798757.461 -9312007.571 -11345569.696 10 0 60900 24300.00000 0 19556818.620 -8349692.203 -13996061.319 10 0 60900 25200.00000 0 18162623.443 -7086674.552 -16373061.987 10 0 60900 26100.00000 0 16676866.021 -5526247.540 -18430218.027 10 0 60900 27000.00000 0 15160401.416 -3684226.274 -20127488.985 10 0 60900 27900.00000 0 13671683.893 -1588541.885 -21431930.616 10 0 60900 28800.00000 0 12264331.505 721678.929 -22318331.524 10 0 60900 29700.00000 0 10984920.385 3197509.199 -22769691.661 10 0 60900 30600.00000 0 9871101.472 5782032.239 -22777534.546 10 0 60900 31500.00000 0 8950117.852 8412490.512 -22342048.711 10 0 60900 32400.00000 0 8237783.143 11022681.995 -21472057.598 10 0 60900 33300.00000 0 7737961.282 13545503.472 -20184820.520 10 0 60900 34200.00000 0 7442566.550 15915534.593 -18505670.571 10 0 60900 35100.00000 0 7332080.643 18071555.624 -16467498.416 10 0 60900 36000.00000 0 7376561.956 19958895.234 -14110093.560 10 0 60900 36900.00000 0 7537101.864 21531512.343 -11479357.177 10 0 60900 37800.00000 0 7767664.586 22753727.620 -8626402.643 10 0 60900 38700.00000 0 8017231.635 23601535.114 -5606561.668 10 0 60900 39600.00000 0 8232159.859 24063442.064 -2478315.408 10 0 60900 40500.00000 0 8358653.677 24140804.534 697829.144 10 0 60900 41400.00000 0 8345248.000 23847647.189 3860496.419 10 0 60900 42300.00000 0 8145198.295 23209976.572 6948611.893 10 0 60900 43200.00000 0 7718678.438 22264617.770 9902562.786 10 0 60900 44100.00000 0 7034695.124 21057623.494 12665329.053 10 0 60900 45000.00000 0 6072639.347 19642321.762 15183564.512 10 0 60900 45900.00000 0 4823410.241 18077082.732 17408609.028 10 0 60900 46800.00000 0 3290063.931 16422896.409 19297413.931 10 0 60900 47700.00000 0 1487959.187 14740860.475 20813364.255 10 0 60900 48600.00000 0 -555608.052 13089681.030 21926983.094 10 0 60900 49500.00000 0 -2802268.689 11523288.642 22616505.175 10 0 60900 50400.00000 0 -5203910.118 10088667.598 22868308.666 10 0 60900 51300.00000 0 -7704419.732 8823987.924 22677196.410 10 0 60900 52200.00000 0 -10241773.316 7757117.744 22046520.024 10 0 60900 53100.00000 0 -12750384.794 6904578.510 20988142.757 10 0 60900 54000.00000 0 -15163622.377 6270987.723 19522239.664 10 0 60900 54900.00000 0 -17416388.426 5849013.969 17676936.482 10 0 60900 55800.00000 0 -19447656.607 5619847.940 15487791.622 10 0 60900 56700.00000 0 -21202860.588 5554171.422 12997128.886 10 0 60900 57600.00000 0 -22636033.677 5613585.024 10253231.757 10 0 60900 58500.00000 0 -23711608.190 5752435.443 7309413.423 10 0 60900 59400.00000 0 -24405797.039 5919965.393 4222979.829 10 0 60900 60300.00000 0 -24707497.191 6062694.666 1054105.948 10 0 60900 61200.00000 0 -24618674.853 6126930.074 -2135351.961 10 0 60900 62100.00000 0 -24154214.466 6061295.639 -5283083.380 10 0 60900 63000.00000 0 -23341236.874 5819172.961 -8327563.770 10 0 60900 63900.00000 0 -22217915.302 5360945.132 -11209281.272 10 0 60900 64800.00000 0 -20831839.809 4655945.950 -13871923.308 10 0 60900 65700.00000 0 -19238000.716 3684028.994 -16263497.484 10 0 60900 66600.00000 0 -17496478.077 2436687.843 -18337362.779 10 0 60900 67500.00000 0 -15669936.878 917678.484 -20053149.418 10 0 60900 68400.00000 0 -13821035.645 -856883.214 -21377548.626 10 0 60900 69300.00000 0 -12009859.336 -2858953.155 -22284956.733 10 0 60900 70200.00000 0 -10291485.579 -5049501.124 -22757961.647 10 0 60900 71100.00000 0 -8713786.776 -7379922.833 -22787663.346 10 0 60900 72000.00000 0 -7315559.694 -9793861.553 -22373823.795 10 0 60900 72900.00000 0 -6125059.437 -12229361.912 -21524845.248 10 0 60900 73800.00000 0 -5158996.871 -14621264.999 -20257579.425 10 0 60900 74700.00000 0 -4422038.578 -16903744.225 -18596973.287 10 0 60900 75600.00000 0 -3906826.928 -19012876.259 -16575560.188 10 0 60900 76500.00000 0 -3594515.967 -20889140.519 -14232807.877 10 0 60900 77400.00000 0 -3455797.378 -22479744.260 -11614337.313 10 0 60900 78300.00000 0 -3452370.595 -23740678.177 -8771028.344 10 0 60900 79200.00000 0 -3538793.040 -24638418.990 -5758030.057 10 0 60900 80100.00000 0 -3664631.223 -25151210.428 -2633695.103 10 0 60900 81000.00000 0 -3776821.492 -25269871.603 541541.711 10 0 60900 81900.00000 0 -3822141.056 -24998101.276 3706319.566 10 0 60900 82800.00000 0 -3749685.924 -24352267.174 6799521.178 10 0 60900 83700.00000 0 -3513252.454 -23360690.423 9761434.469 10 0 60900 84600.00000 0 -3073523.538 -22062455.601 12534885.543 10 0 60900 85500.00000 0 -2399968.588 -20505795.937 15066322.755 99